STARLINK-34174 (64097 NORAD) Tracking and Keplerian Element Data

This shows tracking and keplerian element data for the satellite.

Feedback or suggestion? Click here.




ElementValue
Catalog64097
NameSTARLINK-34174
Epoch Orbit3345
Epoch Day352.52493756
Epoch Year2025
RAAN43.9296
Inclination53.1591
Eccentricity0.0001269
Argument of Perigee82.717
Mean Anonmoly277.3975
Mean Motion15.30204065
Decay Rate0.00013951
L11 64097U 25110B 25352.52493756 .00013951 00000+0 48220-3 0 9990
L22 64097 53.1591 43.9296 0001269 82.7170 277.3975 15.30204065 33459



Live tracking and technical data element details for STARLINK-34174 (NORAD 64097). STARLINK-34174 can be tracked NOW for your location showing map with azimuth and elevation plus other details from your city location.







IsCatalogInMostPopularTable: catalog: 64097, numindb: 2
Update: records affected: 1



GetName: 64097 STARLINK-34174

Hit Count: updated at: Sun, 08 Feb 2026 18:08:18 GMT